User: anonymous   Login
Location: Unspecified
(0.0000°N, 0.0000°E)
Time: 19:40:23
(UTC+00:00)
Language:

USA 238 - Orbit

View from above orbital plane
View from above orbital plane
View from above satellite
View from above satellite

Ground track
Ground track

The orbit data is extracted from the following two-line orbital elements,

1 38758U 12048A   20041.80799289 0.00000000  00000-0  00000-0 0    08
2 38758  63.4283 356.3042 0111207   2.5266 357.4734 13.40801614    06
Epoch (UTC): 10 February 2020 19:23:30
Eccentricity: 0.0111207
inclination: 63.4283°
perigee height: 1023 km
apogee height: 1189 km
right ascension of ascending node: 356.3042°
argument of perigee: 2.5266°
revolutions per day: 13.40801614
mean anomaly at epoch: 357.4734°
orbit number at epoch: 0

The dashed part of the orbit path shows where the satellite is in the earth's shadow,  

DLR